Showing default

SKYSAT 2, 40072

Orbit data source: Space-Track

SKYSAT 2, 40072 is a payload satellite owned by Skybox (US) in SSO that was launched on Tue, 08 Jul 2014 UTC via a SOYUZ-2-1B launch vehicle from the Tyuratam Missile And Space Complex (TTMTR). Payload-class satellites include a variety of spacecraft equipped with specific instruments for various scientific and technological missions. These include communications satellites like Starlink; space stations such as the ISS; scientific satellites like the Hubble; Earth observation satellites from companies like Planet Labs, Umbra, and HawkEye 360; GPS; miniature CubeSats for education and research; and military/defense satellites.

Loading next visibility...
Identifier
40072, 2014-037D
Orbit
SSO
Country
Flag of USUS
Related business
Manufacturer
Skybox
Mission
Operational Commercial Imaging
Bus & Motor
SKYSAT, Unknown motor
Mass
82 kg wet, 82 kg dry
Launch date (UTC)
2014-07-08 (11 years ago)
Launch vehicle
SOYUZ-2-1B
Launch site
Tyuratam Missile And Space Complex (TTMTR)
Object type
Payload
Rocket body
Debris
Shape & HBR
Box, 1.0 m
Radar Cross Section
0.800 m², Medium (>0.1 m² and < 1m²)

Expand to show TLE details & history
Last TLE update: 17 hours ago

TLE from 17 hours ago
0 SKYSAT 2
1 40072U 14037D   25338.68086215  .00003817  00000-0  42981-3 0  9991
2 40072  98.3596 281.9621 0005486 174.8028 185.3245 14.87280526617046
Epoch: 2025-12-04T16:20Z
TLE epoch observation values (Epoch: 2025-12-04T16:20:26.489Z)
Latitude
0.00002°
Longitude
-36.8821°
Altitude
613.27 km
Speed
7.55 km/s
True Right ascension
18h 47m 50s
True Declination
0° 00' 00"
Sunlit
Object was in daylight at epoch
Visualization orbit readout
Latitude
Unknown
Longitude
Unknown
Altitude
Unknown
Speed
Unknown
Apparent Right ascension
Unknown
Apparent Declination
Unknown
Sunlit
N/A
Visualization observer readout
Local Sidereal Time
06:56:13
Azimuth
Unknown
Elevation
Unknown
Doppler factor
Unknown
Orbital elements
Apogee altitude
607.319 km
Perigee altitude
599.659 km
Semi-major axis
6,981.626 km
Eccentricity
0.00055
Inclination
98.3596°
RAAN
281.9621°
Arg. of periapsis
174.8028°
True anomaly
185.31867°
Mean anomaly
185.3245°
Eccentric anomaly
185.32158°
Mean motion
3.72056 °/min
Orbital period
96.76 mins
BSTAR
0.00042981
Loading maneuver chart data...
Computing Atmospheric mass density...
Loading historical data...
Loading historical data...
Loading historical data...
Loading historical data...
Loading historical data...
Loading historical data...
Loading historical data...

Documentation

Showing up to 5 results
|